Regional Weather Roundup
Issued by NWS

Home | Current Version | Previous Version | Graphics & Text | Print | Product List | Glossary On
Versions: 1 2 3 4 5 6 7 8 9 10 11 12 13 14 15 16 17 18 19 20 21 22 23 24 25 26 27 28 29 30 31 32 33 34 35 36 37 38 39 40 41 42 43 44 45 46 47 48 49 50
000
ASUS44 KMEG 200900
RWRTN
TENNESSEE HOURLY STATE WEATHER ROUNDUP
NATIONAL WEATHER SERVICE MEMPHIS TN
400 AM CDT WED AUG 20 2014

TNZ002-004-019-021-049-052-054-088>092-201000-
WEST TENNESSEE

CITY           SKY/WX    TMP DP  RH WIND       PRES   REMARKS
MEMPHIS INTL   CLEAR     79  74  84 SW6       29.92R
NWS MEMPHIS      N/A     79 N/A N/A MISG        N/A
JACKSON        CLEAR     78  75  90 SW6       29.90S
DYERSBURG      CLEAR     79  68  69 W6        29.89S
UNION CITY     CLEAR     75  75 100 CALM      29.87S
PARIS          CLEAR     73  72  94 SW6       29.90R
LEXINGTON      CLEAR     72  72 100 CALM      29.90S
SAVANNAH       CLEAR     73  73 100 CALM      29.93R
$$

TNZ008-025-027-028-033-062-065-066-201000-
NORTH MIDDLE TENNESSEE

CITY           SKY/WX    TMP DP  RH WIND       PRES   REMARKS
NASHVILLE      MOCLDY    77  73  87 CALM      29.91R
CLARKSVILLE    CLEAR     75  72  90 SW5       29.89R
COOKEVILLE     PTCLDY    70  70 100 CALM      29.94S
CROSSVILLE     CLEAR     71  67  87 CALM      30.00R FOG
$$

TNZ061-075-076-078-094-096-097-201000-
SOUTH MIDDLE TENNESSEE

CITY           SKY/WX    TMP DP  RH WIND       PRES   REMARKS
FAYETTEVILLE   CLEAR     72  72 100 SW3       29.96S
TULLAHOMA      CLEAR     72  70  94 SW3       29.97R
WINCHESTER     CLEAR     72  70  94 CALM      29.96S
COLUMBIA       CLEAR     75  75 100 SW5       29.91S
SHELBYVILLE    PTCLDY    73  73 100 CALM      29.95S
$$

TNZ017-018-042-046-047-201000-
NORTHEAST TENNESSEE

CITY           SKY/WX    TMP DP  RH WIND       PRES   REMARKS
TRI CITIES     PTCLDY    67  64  90 CALM      29.99R FOG
ELIZABETHTON   PTSUNNY   64  64 100 CALM      30.00R
$$

TNZ012-013-036-069-073-074-201000-
CENTRAL EAST TENNESSEE

CITY           SKY/WX    TMP DP  RH WIND       PRES   REMARKS
KNOXVILLE      MOCLDY    71  69  93 CALM      29.95R
OAK RIDGE      MOCLDY    71  69  93 CALM      29.96S
GATLINBURG     MOSUNNY   66  64  94 CALM      29.96R
$$

TNZ083-085-099-201000-
SOUTHEAST TENNESSEE

CITY           SKY/WX    TMP DP  RH WIND       PRES   REMARKS
CHATTANOOGA    MOCLDY    73  70  90 CALM      29.95R
$$

SKY/WX REPORTED AS FAIR MEANS FEW OR NO CLOUDS BELOW
12 THOUSAND FEET.




USA.gov is the U.S. government's official web portal to all federal, state and local government web resources and services.